Погода в Смирново

Казахстан     54°30′56″N   69°25′01″E
темп.,
°C
ветер,
м/с
пор.,
м/с
влажн.,
%
обл.,
%
осадки,
мм/ч
давл.,
гПа
погр.,
м
2 марта, вт
вт200:00−18зсз239888 0.1 101721
03:00−20зюз3310095 0.0 101724
06:00−20з339896 0.1 101773
09:00−19юз239897 0.1 1017120
12:00−17юз249387 0.2 1016235
15:00−14юз349399 0.0 1015296
18:00−16ююз339592 0.0 101440
21:00−17ююз349617 0.0 101440
3 марта, ср
ср300:00−17ююз479631 0.0 1014128
03:00−17ююз5119554 0.0 1013226
06:00−18ююз5139243 0.0 1013312
09:00−18ююз6139293 0.0 1011363
12:00−13юз7139396 0.3 1011554
15:00−10юз81393100 0.4 1010662
18:00−8юз81493100 1.1 1009746
21:00−6юз81689100 0.4 1008708
4 марта, чт
чт400:00−4юз71589100 0.5 1007688
03:00−3юз71493100 0.3 1006659
06:00−3ююз71494100 0.8 1005650
09:00−1ююз71396100 0.6 1003798
12:000юз81394100 1.1 1002985
15:000юз81397100 0.3 1001957
18:000юз71292100 0.8 1001885
21:00−2юз71295100 0.3 1001637
5 марта, пт
пт500:00−6з61291100 0.9 1004434
03:00−9зюз6139277 0.0 1007345
06:00−13юз6119239 0.0 1010254
09:00−13юз7149010 0.0 1010342
12:00−8юз10169055 0.1 1009739
15:00−6юз111887100 0.2 10081001
18:00−3юз122086100 0.3 10071131
21:00−3юз122087100 0.1 10071082
6 марта, сб
сб600:00−2юз111892100 0.5 10081073
03:00−2юз101792100 0.4 1008889
06:00−2юз91593100 0.9 1008775
09:00−2з61097100 1.9 1010651
12:00−5з6108572 2.1 1012595
15:00−6з59820 0.0 1014638
18:00−7зюз488938 0.0 1016201
21:00−11юз338941 0.0 101521